User: anonymous
Location: Bangkok
(13.7500°N, 100.5170°E)
Time: 07:14:03
(UTC+07:00)
Language:

Cosmos 1802 Rocket - Orbit

View from above orbital plane
View from above orbital plane
View from above satellite
View from above satellite

Ground track
Ground track

The orbit data is extracted from the following two-line orbital elements,

1 17160U 86093B   14106.39305582  .00000072  00000-0  59414-4 0  1031
2 17160 082.9301 203.1557 0040408 134.2807 293.0998 13.74506213373818
Epoch (UTC): 16 April 2014 09:26:00
Eccentricity: 0.0040408
inclination: 82.9301°
perigee height: 953 km
apogee height: 1013 km
right ascension of ascending node: 203.1557°
argument of perigee: 134.2807°
revolutions per day: 13.74506213
mean anomaly at epoch: 293.0998°
orbit number at epoch: 37381

The dashed part of the orbit path shows where the satellite is in the earth's shadow,  

DLR